RH
93 94 93 91 90 89 87 84 85 85 88 92 94 96 97 97 97 94 92 89 86 80 75 71 69 68 68 69 69 68 67 65 63 62 61 59 57 56 54 52 50 48 47 45 43 41 40 38 38 37 35 35 34 34 33 32 32 31 31 30 29 29 28 27 27 26 26 26 25 25 24 24 23 23 24 23 23 23 22 23 22 22 22 21 21 22 21 22 23 23 22 23 23 24 24 25 27
98 99 99 99 98 99 99 97 99 98 96 95 92 90 87 84 81 78 76 76 77 76 75 74 73 72 71 70 69 67 65 63 62 60 58 56 54 52 49 47 45 43 42 40 39 38 37 36 35 34 33 33 32 32 31 31 30 30 29 29 29 27 27 26 26 25 24 24 23 24 23 22 22 21 22 21 21 21 21 20 21 21 21 21 20 20 20 20 21 21 21 21 21 22 22 22 24
100 98 96 97 98 100 101 100 99 94 90 87 86 86 84 81 78 78 79 81 81 79 76 72 69 67 65 64 63 63 61 60 58 56 54 52 49 47 45 43 42 40 39 38 37 36 35 34 33 32 32 31 30 30 29 29 27 27 26 25 25 24 23 22 22 22 21 21 20 20 20 19 19 19 18 18 18 18 18 18 18 18 19 19 19 19 19 19 19 20 20 20 20 20 21 21 21
100 98 97 96 96 95 93 90 84 79 81 87 91 91 89 85 83 82 79 76 73 70 67 65 64 63 63 63 62 60 58 55 53 51 48 46 44 42 41 39 39 37 37 35 34 33 32 31 30 29 29 28 27 26 25 24 24 22 22 21 20 19 18 18 17 17 16 16 16 15 15 15 14 15 14 14 14 14 14 15 15 15 15 16 17 17 17 18 17 18 18 19 19 19 19 20 20
100 98 94 90 86 83 78 70 63 61 65 74 80 80 79 77 75 73 69 67 65 66 66 66 66 64 63 60 58 54 51 49 47 45 43 41 40 39 38 36 36 34 33 32 31 29 28 27 26 25 24 23 22 21 21 19 19 18 17 17 15 15 14 14 14 13 13 12 12 12 12 12 12 11 11 11 11 11 11 11 12 11 12 12 13 14 14 15 16 16 17 17 17 18 18 18 19
90 88 86 82 76 70 65 61 62 66 69 72 75 75 74 72 69 68 68 69 69 69 68 66 63 60 56 53 50 48 45 44 42 41 39 38 37 36 35 34 32 31 29 28 27 25 24 23 21 21 19 18 18 16 16 15 14 14 13 13 12 12 11 11 11 11 10 10 10 10 10 10 10 10 9 10 10 9 10 9 9 9 9 9 10 10 11 12 13 14 14 15 16 16 17 16 17
85 83 79 74 69 67 69 73 77 80 81 79 78 77 75 74 74 74 74 72 69 65 62 58 54 51 48 46 44 43 41 41 40 38 38 36 35 34 32 30 29 27 25 24 22 21 19 18 17 16 15 14 14 13 13 12 12 12 11 11 11 10 11 10 10 10 9 9 9 9 9 9 9 9 9 9 9 9 9 9 8 9 9 8 8 8 8 9 10 11 11 13 14 15 15 16 16
76 71 69 72 77 81 82 81 79 77 77 77 77 78 78 78 76 73 69 64 60 55 52 49 47 45 43 42 41 41 40 39 38 37 36 34 32 30 28 26 24 23 21 19 18 17 15 15 14 13 13 13 12 12 12 12 12 11 12 11 11 11 11 11 10 10 10 10 9 9 9 9 9 8 9 9 9 9 8 8 8 8 8 8 8 8 7 7 7 8 9 10 11 13 14 15 15
68 71 76 82 84 82 78 77 77 79 80 82 83 81 77 73 67 62 58 54 51 48 46 45 43 43 42 42 41 40 39 37 36 34 32 30 28 25 24 21 20 18 16 16 15 14 14 13 13 13 13 13 12 13 12 12 12 12 12 12 12 12 11 11 11 11 11 11 10 10 9 9 9 9 9 9 9 9 8 8 8 8 8 7 7 7 7 7 7 7 7 8 8 9 11 12 14
75 79 81 82 82 82 84 86 87 87 86 84 79 72 66 61 57 53 50 48 46 45 44 43 43 43 42 41 40 38 36 34 31 29 27 25 23 21 19 18 16 16 15 15 14 14 14 13 13 13 13 13 13 13 13 13 13 13 12 13 12 12 12 12 11 11 11 11 11 10 10 10 9 10 9 9 9 8 8 8 8 8 8 7 7 7 7 7 7 7 6 6 7 7 8 10 11
87 88 89 90 92 92 91 88 85 82 78 73 67 61 58 54 52 49 48 46 45 45 44 44 43 42 41 38 36 33 31 29 27 25 23 21 19 18 17 16 16 15 15 14 15 14 14 14 14 14 14 13 13 13 13 13 13 13 13 13 13 12 13 12 12 12 11 11 11 11 10 10 10 10 9 9 9 9 9 8 8 8 7 7 7 7 7 7 7 6 7 6 6 6 6 8 8
97 98 97 94 90 87 82 79 75 71 67 63 59 55 53 51 49 48 47 46 46 46 45 44 42 39 36 33 30 28 26 24 23 21 19 18 17 17 16 16 16 16 16 15 15 15 15 15 14 14 14 14 14 14 14 14 13 13 13 13 13 13 13 13 13 12 13 12 12 12 11 11 11 10 10 10 10 10 9 9 8 8 7 7 7 7 7 6 7 7 7 7 6 6 6 6 7
97 95 91 87 83 79 74 71 67 63 60 57 55 53 52 50 49 49 48 48 47 46 43 40 36 33 30 27 25 24 23 21 20 19 18 18 17 17 17 17 17 17 17 16 16 16 16 15 15 15 15 15 15 15 14 14 14 14 13 13 13 13 13 13 13 13 13 13 13 13 12 12 11 11 11 11 11 11 10 10 9 9 8 8 7 7 7 6 6 7 6 7 7 6 7 6 6
91 88 84 81 77 73 70 66 63 60 58 56 54 53 52 51 51 50 49 48 45 41 37 33 30 28 25 23 22 21 20 20 19 19 19 18 19 18 18 18 18 18 17 17 17 17 17 17 17 17 17 18 17 16 16 15 15 14 14 14 14 13 13 13 13 13 13 13 13 13 12 12 12 11 12 11 11 11 11 11 10 10 9 9 9 8 7 7 6 7 7 6 7 6 6 6 6
86 82 79 76 73 70 67 63 61 59 58 56 55 55 54 53 52 50 48 44 39 35 31 28 27 24 22 21 20 21 20 20 20 19 20 19 20 19 19 19 19 19 19 19 19 19 20 19 20 20 19 19 18 17 16 16 15 14 14 13 13 13 13 13 13 13 13 13 12 13 12 12 12 12 12 12 12 11 11 11 10 10 10 9 9 8 7 7 7 6 7 6 6 6 6 6 6
81 78 76 73 71 67 64 62 60 59 58 58 57 55 54 52 50 47 43 38 32 29 27 25 24 22 21 21 20 20 20 20 21 20 21 21 21 21 20 20 20 20 21 21 21 21 20 20 20 19 19 18 17 17 15 15 14 13 13 13 12 12 12 12 12 12 12 12 12 12 12 12 12 12 12 12 11 11 11 10 10 10 9 9 8 8 8 7 7 6 6 6 6 6 6 6 6
78 76 73 71 68 66 64 62 61 61 60 59 57 55 53 50 46 42 37 32 28 26 25 23 22 21 21 21 20 20 21 21 21 21 21 21 21 21 21 21 21 21 21 21 20 20 19 19 19 18 17 16 15 15 15 15 15 16 15 15 13 12 12 11 11 12 12 12 12 12 12 12 12 12 12 12 11 11 11 11 10 10 9 9 9 8 8 7 7 6 6 6 6 6 6 6 6
77 74 72 69 67 65 64 64 64 63 61 58 55 53 50 46 41 36 32 28 26 24 23 22 22 21 21 21 21 21 21 21 21 21 21 21 21 21 21 21 21 20 20 20 19 19 19 18 18 17 16 17 19 20 22 22 22 22 20 19 17 16 15 14 13 12 12 12 12 12 12 12 12 13 12 12 12 11 11 11 10 10 9 9 9 8 8 8 7 7 6 6 6 6 6 6 6
75 72 70 69 68 67 68 67 66 62 58 55 53 51 47 42 36 32 28 25 24 23 23 22 22 22 22 22 22 22 21 21 21 21 21 20 20 20 20 20 19 19 19 19 20 19 18 18 18 19 22 25 29 30 29 28 26 26 24 23 21 20 19 18 18 17 17 17 16 16 15 14 14 13 13 13 12 12 11 11 11 10 10 9 9 9 8 8 7 7 7 6 6 6 6 6 6
73 72 71 71 70 70 69 66 62 58 55 53 51 48 42 36 31 28 26 24 24 23 23 23 23 22 23 23 22 22 21 22 21 21 21 20 20 19 19 19 19 19 20 20 20 19 20 21 24 28 32 34 34 32 30 28 27 26 25 23 21 20 19 19 20 21 23 24 23 22 21 19 18 16 16 15 14 14 13 12 12 11 10 10 9 9 8 8 7 7 7 7 6 6 6 6 6
76 76 74 74 73 71 67 62 58 55 53 52 49 43 36 32 28 26 24 24 24 25 25 24 24 23 24 24 23 23 22 22 22 21 21 20 19 19 19 19 20 20 20 20 20 23 26 29 33 37 37 35 32 29 28 27 26 24 21 19 17 17 16 17 20 23 26 29 29 28 27 25 23 21 19 18 17 16 16 14 14 13 12 11 10 10 9 8 8 7 7 7 7 7 7 6 6
79 78 77 76 73 68 62 58 56 55 53 50 44 37 32 29 26 25 24 25 26 26 27 25 25 25 25 26 24 24 24 23 22 21 20 19 19 19 20 20 20 21 21 22 25 29 32 35 39 39 36 32 28 25 24 24 22 20 19 18 18 19 20 21 23 26 29 31 32 30 29 28 25 24 23 22 21 20 20 19 17 17 16 15 13 12 11 10 10 9 8 8 7 7 7 7 7
81 80 78 74 68 63 59 58 57 55 53 47 40 34 30 27 25 25 25 26 28 28 27 27 27 27 27 27 25 25 24 23 23 21 20 20 20 20 20 21 21 22 24 28 31 33 37 41 41 37 32 27 23 21 21 21 21 21 21 22 22 23 24 26 27 29 31 31 32 32 31 31 30 29 28 26 25 25 23 22 21 20 19 17 16 15 14 13 12 11 10 9 9 8 8 8 8
83 81 75 69 64 61 59 59 58 55 51 45 37 33 28 26 25 26 27 28 29 29 28 28 28 28 28 26 25 25 24 24 22 21 21 21 21 21 21 22 24 27 30 32 34 38 42 43 39 33 26 22 21 22 22 23 25 27 28 29 29 29 30 31 32 32 33 33 32 32 31 31 31 30 29 28 27 26 24 24 22 21 20 19 18 17 15 15 14 13 11 10 10 9 9 8 8
84 79 72 67 63 61 61 61 59 55 50 43 36 32 28 26 26 26 28 30 31 30 28 28 28 28 27 26 26 26 25 24 23 22 22 22 22 22 23 26 29 31 33 36 40 44 44 40 35 28 24 24 26 28 30 31 32 33 33 33 33 32 32 32 32 32 32 32 32 31 31 30 29 29 28 28 27 26 26 25 23 22 21 20 19 18 17 16 15 14 13 11 10 10 10 10 9
81 75 70 67 64 63 63 63 61 56 50 43 36 32 30 29 28 27 29 32 31 30 29 28 29 29 28 28 28 27 25 23 23 22 22 23 23 25 27 30 33 35 38 42 45 44 41 37 30 25 27 31 33 34 35 35 34 33 33 32 31 31 31 31 31 31 31 31 31 30 30 30 29 29 29 29 29 29 28 27 26 25 23 22 21 19 18 17 16 15 14 12 11 10 11 11 10
77 74 70 68 66 64 64 65 63 59 52 46 39 36 34 31 29 28 30 32 32 30 29 30 31 30 29 30 29 26 25 24 23 23 23 24 26 29 32 34 36 40 45 47 44 41 37 31 26 28 34 35 35 36 35 34 33 32 31 30 31 31 31 31 32 32 32 32 32 31 30 30 30 31 31 31 31 32 31 30 29 27 26 25 23 22 20 18 17 16 15 13 11 11 11 11 10
76 74 72 70 67 65 67 68 66 62 56 50 44 40 36 32 29 29 32 34 33 31 31 32 33 32 31 30 28 26 24 24 23 24 25 28 31 34 35 38 43 47 47 43 39 36 31 26 28 33 35 34 35 35 34 33 31 30 30 31 32 33 33 33 33 33 34 34 33 33 33 32 33 34 34 33 33 33 32 31 30 28 27 26 24 23 22 20 19 17 16 14 12 11 11 11 11
77 77 76 73 68 67 70 73 70 66 61 55 48 42 38 35 30 29 33 36 33 33 33 34 35 33 31 29 27 25 24 24 24 26 30 33 35 37 42 46 47 46 41 38 34 29 25 26 32 34 33 33 33 33 32 31 30 30 31 33 34 35 36 36 36 35 35 35 35 35 35 34 34 34 34 33 33 32 32 31 29 28 27 26 25 24 23 21 20 19 17 16 13 11 11 11 11
81 83 80 73 70 72 75 77 75 71 67 61 54 47 42 37 33 32 34 36 34 34 35 35 35 31 30 28 26 24 24 25 28 32 35 38 41 45 48 47 44 40 36 32 28 25 27 31 33 33 32 32 31 31 31 30 32 33 33 35 36 36 36 36 36 36 36 36 36 35 35 34 33 32 32 32 32 31 31 30 29 29 27 26 25 24 24 22 21 20 18 17 15 12 11 11 11
91 89 81 73 72 75 78 80 78 76 73 66 59 51 45 39 35 34 35 35 34 35 35 34 33 31 29 26 24 25 27 29 33 38 42 45 49 50 47 42 38 34 29 25 26 28 32 33 33 33 32 31 31 31 31 33 35 36 36 36 36 36 36 36 36 36 36 36 35 35 34 32 32 31 30 30 30 30 30 30 29 29 28 27 26 25 24 23 21 21 19 18 16 13 11 11 11
97 88 79 75 74 75 79 81 78 77 76 72 64 54 48 41 34 34 35 35 34 35 35 33 32 29 26 25 26 28 31 36 42 46 49 51 49 45 39 33 29 25 24 26 29 32 33 33 33 32 31 31 32 33 34 36 37 39 39 38 37 36 36 37 37 37 37 37 36 35 34 33 32 31 30 30 30 30 30 30 29 29 28 27 26 25 24 23 22 21 20 18 16 14 11 10 10
98 86 78 76 76 77 80 83 82 81 82 78 66 54 48 41 35 35 36 35 36 36 35 32 29 25 25 27 29 33 40 47 50 51 50 46 39 33 29 25 22 22 25 29 32 33 33 32 32 31 31 32 34 35 37 39 40 41 41 39 38 37 37 37 37 37 38 38 38 38 37 35 33 32 31 30 30 30 30 30 30 29 28 27 26 25 24 23 22 21 20 18 16 14 11 10 9
95 86 81 80 83 84 84 86 87 88 86 76 62 51 46 41 37 36 36 37 37 36 32 28 25 26 28 30 35 45 52 53 50 47 40 32 27 24 23 22 23 26 29 32 32 33 33 32 32 32 33 34 36 37 39 41 42 42 41 40 39 38 38 38 37 37 38 39 41 41 40 38 36 34 33 32 31 31 31 31 30 29 28 27 26 25 24 23 22 21 19 18 17 15 12 10 9
89 83 83 87 92 91 90 90 91 90 81 67 52 44 43 41 39 38 38 37 35 32 28 26 27 29 30 37 51 56 53 47 41 34 26 23 23 24 26 27 29 31 31 32 33 33 33 33 33 35 36 37 38 38 40 42 42 42 41 41 41 41 40 40 39 39 38 40 42 43 42 40 38 37 35 34 33 32 32 31 30 29 28 27 26 25 24 23 22 20 19 18 17 15 13 10 9
83 80 83 89 93 91 89 88 87 78 64 52 43 40 41 41 40 40 37 34 32 29 27 28 30 30 40 55 59 49 40 36 29 24 23 26 28 29 31 32 32 32 32 32 33 33 34 34 36 37 38 39 38 38 40 41 41 41 41 42 42 43 43 43 43 42 41 42 43 44 43 41 40 40 38 36 34 34 32 31 30 30 29 28 27 26 24 23 22 20 19 18 17 15 14 11 9
80 80 84 85 85 85 84 84 80 65 48 41 39 39 41 40 40 39 34 31 30 28 29 30 30 41 59 60 44 33 30 27 24 26 29 30 31 32 33 33 33 33 32 32 33 34 34 36 37 37 37 38 38 38 39 39 40 40 41 43 44 45 46 46 45 44 44 45 47 47 45 43 43 42 40 37 35 34 32 31 31 30 30 28 27 26 25 24 22 20 19 18 17 15 14 12 10
78 79 80 79 78 80 82 83 73 54 40 37 36 37 41 41 40 36 32 31 29 31 31 29 41 61 61 40 26 26 25 25 28 31 32 32 32 33 33 34 34 33 33 33 34 35 36 37 37 37 37 37 39 39 39 39 39 40 42 44 45 47 47 47 47 47 48 51 54 54 51 47 44 42 41 38 35 33 32 32 31 30 30 28 27 26 25 24 22 21 19 18 17 16 14 12 10
75 75 75 75 75 77 80 79 65 46 37 36 35 35 38 39 39 35 31 30 32 31 29 38 58 61 39 22 24 26 26 29 33 32 32 33 32 33 34 34 34 34 35 35 36 37 38 38 38 38 38 39 39 39 39 38 39 42 44 45 46 47 48 48 50 51 53 58 61 61 57 51 45 43 41 38 36 34 33 32 31 30 29 28 27 26 25 24 22 21 19 18 17 15 15 13 11
75 75 74 74 75 75 71 62 49 38 35 36 34 32 33 34 35 34 31 33 34 29 35 54 60 40 22 24 29 29 31 33 32 32 33 33 34 36 36 36 37 38 38 39 39 39 40 40 40 40 40 40 40 39 40 40 41 43 45 47 48 49 50 51 53 56 59 62 64 61 58 54 48 44 42 39 37 35 34 32 31 30 29 28 27 26 25 23 22 20 19 18 16 15 14 13 12
76 78 76 75 75 70 57 42 34 34 35 37 35 32 31 32 34 34 33 34 32 32 48 58 43 24 24 31 33 34 34 32 32 33 32 34 38 38 38 38 40 41 42 43 43 42 42 43 42 42 42 42 42 42 43 45 45 46 48 51 53 54 55 55 56 59 62 64 64 60 55 52 49 46 43 41 39 37 35 33 32 30 29 28 27 25 24 22 22 20 19 18 16 15 14 13 12
76 79 79 78 71 58 42 32 31 32 33 34 35 33 31 33 34 33 33 31 30 39 50 44 30 28 32 34 35 37 35 34 34 33 35 39 40 40 40 41 42 43 44 45 46 47 47 48 48 47 48 48 48 49 49 51 51 52 54 56 58 59 59 60 60 61 63 64 63 59 54 51 48 45 43 42 41 39 37 34 33 31 30 28 27 25 24 22 21 20 18 17 15 14 13 13 12
79 82 81 74 59 43 34 31 31 30 30 32 33 32 34 36 36 35 32 29 34 44 42 33 33 36 34 33 35 35 36 38 37 37 40 42 42 42 44 45 46 46 47 49 50 53 55 56 57 57 57 56 56 56 57 57 58 58 59 59 60 60 60 61 61 61 64 64 61 58 54 50 47 45 43 43 42 41 39 36 34 33 31 29 27 26 24 22 20 19 18 16 15 14 13 12 12
84 83 75 60 44 35 31 30 29 29 30 31 34 36 39 41 41 40 36 32 38 42 36 34 41 42 37 34 35 36 39 41 40 41 43 44 45 45 46 47 49 50 52 55 57 59 61 61 61 60 60 59 60 61 62 62 62 61 60 59 59 61 61 62 62 62 64 64 61 57 53 50 48 46 45 43 43 42 40 38 36 34 32 30 27 25 23 21 19 18 16 15 14 13 12 12 11
83 74 58 43 35 31 29 28 28 29 30 33 38 41 45 50 46 36 32 34 36 36 34 38 45 46 40 34 35 39 43 47 45 45 46 47 48 48 49 51 52 54 56 57 59 60 59 59 59 60 60 61 62 63 63 62 62 61 60 59 59 61 61 62 63 64 63 61 60 57 54 50 48 47 45 44 43 42 40 39 38 36 34 31 28 25 22 20 18 17 15 14 13 12 12 11 11
75 59 43 34 31 28 27 28 29 30 32 36 44 50 61 68 51 28 25 32 34 32 34 41 49 51 42 35 38 43 49 54 52 50 49 48 49 50 53 55 56 57 56 57 57 57 59 61 62 64 65 64 64 64 63 62 60 59 59 59 59 60 61 62 63 64 62 58 56 55 52 50 48 47 46 45 44 42 40 39 39 37 34 31 28 24 21 18 16 15 14 13 12 12 11 10 10
63 46 35 29 28 27 27 29 31 34 37 44 59 75 86 78 45 21 24 31 32 32 35 44 53 52 43 39 45 52 56 57 55 56 57 57 58 58 59 60 59 57 57 57 58 59 63 65 66 67 67 65 63 62 60 59 58 56 56 57 58 59 60 60 60 60 59 56 54 53 51 49 48 47 46 45 45 43 41 39 38 36 33 30 27 23 20 17 15 14 13 12 11 11 10 10 10
51 37 30 27 26 27 28 31 34 37 43 58 78 89 85 60 30 21 27 30 32 34 38 46 50 46 44 49 56 62 63 61 61 64 67 68 68 67 67 64 60 59 60 61 62 65 66 65 65 65 65 62 58 57 56 55 55 55 55 57 58 58 58 57 57 56 55 54 53 51 50 49 48 48 48 47 46 43 41 38 35 33 31 28 24 21 18 15 13 12 11 11 11 10 10 9 9
41 33 29 28 27 27 30 32 36 42 53 69 81 76 60 41 27 28 30 31 35 38 43 48 47 44 48 55 63 66 64 62 62 63 63 64 63 63 64 62 61 62 63 64 65 67 67 66 63 61 60 59 55 54 53 53 54 55 56 57 57 57 56 55 54 53 53 52 50 50 49 50 50 50 49 46 45 42 38 36 32 30 27 24 21 18 15 13 12 11 11 10 10 9 9 9 9
34 31 28 28 29 30 32 35 44 54 56 58 59 51 41 34 30 32 35 35 39 43 48 50 47 45 50 57 62 62 59 57 55 56 56 56 56 59 62 62 62 61 60 61 64 65 64 62 58 56 55 53 52 51 51 52 54 54 56 56 56 55 54 53 53 52 52 50 49 48 48 49 49 48 46 43 40 37 34 31 28 25 22 19 17 14 13 12 11 10 10 9 9 9 8 8 8
29 29 29 30 32 33 34 42 54 55 43 39 43 40 37 37 35 37 38 39 44 50 53 52 48 49 55 60 59 57 56 56 56 57 58 58 59 62 63 60 56 54 55 59 62 62 59 55 53 51 50 49 49 50 49 50 52 54 56 56 55 54 53 53 52 51 50 48 47 46 45 45 44 42 39 36 33 29 26 23 20 18 16 14 13 12 11 10 10 10 9 9 9 8 8 7 8
28 29 31 33 35 37 43 53 56 44 32 34 42 43 44 47 48 48 46 46 52 57 60 59 55 56 59 60 60 61 63 62 62 63 62 62 62 61 58 53 52 53 57 60 60 57 53 52 51 49 48 49 51 53 52 50 51 53 55 55 55 54 52 52 50 48 47 45 44 44 42 39 36 33 30 26 23 20 17 15 13 13 12 11 11 10 10 9 9 9 8 8 8 7 7 7 7
28 31 35 35 37 45 53 53 44 35 33 37 43 51 57 60 61 59 55 56 61 62 64 64 63 65 67 68 69 69 66 63 63 62 60 58 56 53 52 52 56 60 61 60 56 52 51 49 49 50 51 52 54 56 56 55 55 56 56 57 55 53 51 49 47 45 43 41 39 36 32 29 25 22 20 17 15 13 12 11 10 10 10 9 9 9 9 8 8 8 7 7 7 7 7 7 7
32 36 37 37 44 53 52 43 34 33 36 39 45 54 64 70 69 61 57 60 62 64 68 72 77 81 80 79 77 73 69 66 65 62 59 56 54 57 61 64 66 65 61 57 52 51 51 50 51 52 53 54 54 55 58 60 62 61 60 58 54 51 47 44 43 42 39 36 30 25 21 18 16 14 13 11 11 10 9 8 8 8 8 8 8 7 8 8 7 7 7 7 7 7 7 7 7
39 39 40 45 51 47 38 35 36 36 37 42 45 49 59 70 69 60 57 58 59 62 69 76 80 80 75 72 71 69 68 66 64 61 59 59 61 67 69 68 64 59 55 52 51 51 52 53 53 52 53 55 57 58 60 61 61 60 58 54 50 47 44 42 40 36 31 26 21 17 14 12 11 10 10 9 9 8 7 7 7 7 7 7 7 7 7 7 7 7 7 6 7 6 6 7 6
42 44 50 54 49 37 33 36 39 38 39 45 46 46 53 60 57 53 52 51 51 56 61 64 64 62 60 59 59 59 58 56 55 56 57 59 61 62 59 54 51 49 49 49 49 50 51 52 52 52 55 57 58 59 58 56 54 52 49 48 47 46 44 40 34 27 21 17 14 12 11 11 10 9 8 7 7 7 6 6 6 6 6 6 6 6 6 6 6 6 6 6 6 6 6 6 6
45 52 55 49 40 37 39 41 44 46 48 50 47 46 53 55 49 48 46 44 49 54 55 55 56 55 55 55 54 53 52 51 53 56 58 56 52 48 46 46 47 48 49 49 49 49 50 51 53 56 58 58 57 55 52 50 48 46 45 44 41 38 32 26 20 16 13 12 11 11 10 10 9 8 7 7 6 6 5 5 5 5 5 5 5 5 5 6 6 6 6 6 5 6 5 6 6
53 53 46 40 40 42 42 42 47 51 54 56 51 48 54 54 50 49 47 48 56 59 58 58 59 59 59 57 55 53 54 56 59 58 53 47 43 44 46 48 50 51 51 50 51 52 54 57 59 61 60 57 54 51 48 47 45 43 39 32 26 20 16 13 12 11 11 11 10 10 9 8 8 7 7 6 6 5 5 5 4 4 5 5 5 5 5 5 5 5 5 5 5 5 5 5 5
Wind_Speed
27 27 28 29 30 31 33 34 35 36 37 38 39 40 42 43 45 47 49 50 52 54 55 57 58 59 60 61 62 64 65 67 68 69 70 72 73 74 75 76 77 78 79 80 80 81 82 83 83 83 83 84 84 84 84 84 84 84 84 84 84 83 83 83 84 83 83 83 83 83 84 84 83 82 82 82 82 82 82 83 83 83 82 82 81 81 80 79 79 79 79 78 78 77 75 73 70
26 27 27 28 30 31 33 34 36 37 39 40 42 44 45 47 48 50 51 53 54 56 57 58 59 60 62 63 65 67 68 70 71 72 73 74 75 76 77 77 78 79 80 81 81 82 82 83 83 82 82 82 83 82 82 82 82 82 82 82 82 82 82 82 82 82 82 82 82 82 83 83 83 82 82 82 82 82 83 83 83 83 83 83 82 82 82 81 81 81 80 80 80 79 78 76 74
28 29 30 31 32 33 35 36 38 40 42 44 45 46 47 49 50 51 53 54 55 57 59 60 62 64 65 67 68 69 70 71 72 73 74 75 76 77 78 79 80 80 81 81 81 81 81 81 81 81 80 80 80 80 80 80 80 80 80 79 79 79 79 79 80 80 80 80 81 81 81 81 81 81 81 81 81 81 82 83 83 82 82 83 83 83 83 83 83 83 82 82 82 81 80 79 77
31 32 33 35 36 37 39 40 42 43 45 46 47 48 50 51 52 54 55 57 59 60 62 64 65 66 67 68 69 70 71 72 73 74 75 76 77 79 80 80 80 80 80 80 80 80 79 79 79 79 79 78 78 78 78 78 78 78 78 77 77 77 77 77 77 77 78 78 79 79 79 79 79 79 79 80 80 80 81 82 82 82 82 82 83 83 84 84 84 84 84 84 84 83 83 82 80
34 35 37 38 39 41 42 44 45 47 49 50 51 52 53 54 56 57 59 60 62 63 64 65 66 67 67 69 70 71 72 74 75 76 77 78 79 79 79 79 79 78 78 78 77 77 77 77 77 77 77 77 76 76 76 76 76 76 77 77 76 76 76 76 76 76 76 77 77 78 78 78 78 78 78 78 79 80 80 81 81 81 82 82 82 83 84 84 85 85 85 85 86 85 85 84 83
38 39 40 41 42 44 45 47 49 50 51 52 53 55 56 57 58 59 60 61 62 63 64 65 66 68 69 71 72 74 75 76 77 78 78 78 78 77 77 76 76 76 75 75 75 75 74 74 74 74 74 74 74 75 75 75 75 75 75 76 76 76 76 76 76 76 76 77 77 77 78 78 78 78 78 78 79 79 80 80 81 81 81 82 82 82 83 84 85 86 86 86 86 87 87 86 85
40 41 42 44 46 47 48 50 51 52 53 54 55 56 57 57 58 59 59 60 62 63 65 67 69 70 72 74 74 76 76 76 76 76 75 75 74 74 73 73 73 73 73 73 73 72 72 72 72 72 72 72 72 73 73 73 74 74 74 75 75 75 75 76 76 76 76 77 77 77 77 78 78 78 78 78 79 80 80 81 81 81 82 82 83 83 83 84 85 86 86 87 87 88 88 88 88
43 44 46 47 48 49 50 51 53 53 54 54 55 55 56 57 58 59 60 62 64 66 68 70 71 72 74 74 74 74 74 73 72 72 71 71 71 71 70 70 70 70 70 70 70 70 70 70 70 70 71 71 71 71 72 72 73 73 74 74 75 75 75 76 76 76 77 77 77 78 78 78 78 78 78 78 79 80 81 81 81 82 83 83 83 84 84 84 84 85 86 87 87 88 89 89 90
46 47 48 49 50 51 51 52 52 52 53 53 54 55 57 58 60 62 64 66 67 69 70 71 72 72 72 72 71 71 70 70 69 69 69 68 68 68 68 68 68 68 68 68 68 69 69 69 69 69 69 70 70 71 71 72 72 73 74 74 75 75 76 76 77 77 77 77 78 78 78 78 78 78 78 79 80 81 81 82 82 83 83 84 84 85 85 85 85 85 85 86 87 88 89 89 91
48 48 49 49 49 49 49 49 50 51 52 54 55 57 59 61 63 65 67 68 69 70 71 71 70 70 69 68 68 68 67 67 67 66 66 66 66 66 66 66 66 66 66 66 67 67 68 68 68 68 69 69 70 70 71 72 72 73 74 74 75 76 76 77 77 78 78 78 78 79 79 79 78 79 79 79 80 81 81 82 83 83 84 85 85 86 86 85 86 86 86 86 87 87 88 90 91
47 46 46 46 46 47 48 49 51 53 55 57 59 61 63 64 66 67 68 69 69 69 68 68 67 67 66 65 65 65 64 64 64 64 64 64 63 64 64 64 64 64 65 66 66 67 67 68 68 69 69 69 70 70 71 71 72 73 73 74 75 75 76 77 77 77 78 78 78 79 79 79 79 79 79 79 80 81 82 83 83 84 84 85 85 85 86 85 85 86 87 87 87 87 88 89 91
44 44 45 46 48 49 51 53 55 57 59 61 62 64 65 66 67 67 67 67 67 66 65 65 64 64 63 62 62 62 62 62 62 61 61 61 62 62 62 63 63 64 65 66 67 67 68 69 69 70 70 70 70 71 71 72 72 73 73 74 74 75 76 76 77 77 78 78 78 79 79 79 79 79 79 80 80 81 82 83 84 84 85 85 84 84 84 84 84 85 86 88 88 88 89 90 91
45 47 48 50 51 53 55 57 58 60 62 63 64 65 65 65 65 65 64 63 63 62 62 61 61 60 59 59 60 59 59 59 59 59 60 60 61 61 62 63 64 64 65 66 67 68 69 70 70 71 72 72 73 73 73 73 74 74 74 74 75 75 76 76 77 77 78 78 79 79 79 80 80 79 79 80 80 81 82 83 84 85 86 86 85 84 84 83 82 83 85 87 88 89 90 91 92
48 50 51 53 54 56 57 59 60 61 62 63 63 63 63 62 62 61 60 60 59 58 58 58 58 57 56 57 57 57 57 58 58 59 59 60 60 61 62 63 64 65 66 67 68 69 70 71 71 73 73 74 75 75 76 76 75 75 76 76 76 76 76 77 77 78 78 79 79 80 80 80 80 80 80 80 81 81 82 83 85 85 86 86 86 85 85 83 82 82 83 85 86 88 90 92 93
50 52 53 55 56 57 59 60 60 61 61 61 61 61 60 60 59 58 58 57 56 56 55 56 56 55 54 55 56 56 57 57 58 59 59 60 61 62 62 63 64 65 66 67 69 70 71 72 73 74 75 76 76 77 77 77 77 77 76 76 77 77 77 77 77 78 78 79 80 80 80 80 80 80 80 80 81 82 83 84 85 85 86 87 87 86 86 84 83 82 82 83 85 87 89 91 93
53 54 55 56 57 58 59 59 60 59 59 59 59 58 58 57 57 56 56 55 54 55 54 55 56 54 54 56 56 56 57 58 59 59 60 61 62 63 64 64 65 66 67 69 70 71 72 73 74 75 75 76 76 76 76 77 77 77 77 77 77 77 77 77 77 77 78 78 79 79 79 80 80 80 81 81 81 82 83 84 85 85 86 87 87 87 86 85 84 83 82 82 83 85 87 90 92
54 55 56 57 57 58 58 58 58 58 57 57 57 56 55 55 55 54 54 54 53 54 54 55 56 54 55 56 57 57 58 59 60 61 62 63 64 65 66 66 67 68 69 70 71 72 73 73 73 74 74 75 75 75 75 75 75 75 75 76 76 76 76 76 76 76 77 77 78 78 78 78 79 79 80 81 81 81 82 83 84 85 86 87 87 86 86 86 84 83 82 82 82 83 86 88 91
54 55 55 56 56 57 57 57 56 56 56 55 55 54 54 53 53 53 53 53 54 54 55 56 56 55 56 57 58 59 60 61 62 63 64 65 66 67 67 68 69 69 70 71 72 72 72 72 72 72 73 73 73 73 73 73 73 73 74 74 75 75 74 74 74 74 75 75 75 75 76 77 77 78 79 80 80 81 82 83 84 85 86 86 87 87 86 86 85 83 82 82 81 82 84 86 89
54 54 55 55 55 55 55 55 55 54 54 54 53 53 53 52 53 53 52 53 54 54 56 57 57 56 57 59 60 61 63 63 64 65 66 67 67 68 68 69 69 70 70 70 71 71 71 71 71 71 70 70 70 70 71 71 71 71 72 72 72 72 72 72 72 72 71 71 71 72 73 74 75 75 76 78 79 80 81 82 83 85 86 86 87 87 86 86 85 84 83 82 82 81 82 84 87
53 54 54 54 54 54 54 53 53 53 53 52 52 52 52 52 53 52 52 53 54 56 57 57 58 58 59 61 62 64 65 65 66 67 68 68 68 69 68 69 69 69 69 69 69 70 70 69 69 69 68 68 68 68 69 69 68 68 68 67 66 66 66 66 66 66 66 66 67 67 68 69 71 72 73 75 76 77 79 80 82 83 85 86 86 86 86 85 85 84 83 82 82 82 82 83 84
52 53 53 53 53 52 53 52 53 53 52 52 52 52 52 52 52 52 52 53 55 57 58 59 60 61 62 63 65 65 66 67 67 68 69 68 68 69 68 69 69 69 68 68 67 68 68 67 67 67 67 67 67 67 66 65 64 62 60 58 57 57 57 57 57 58 59 60 61 62 63 65 66 68 69 70 72 73 76 78 80 81 83 84 85 85 85 85 85 84 83 82 81 81 82 83 84
51 52 51 51 51 51 52 52 52 52 52 51 52 52 52 52 52 53 53 54 56 58 60 61 62 63 64 65 66 66 67 68 68 69 69 69 69 69 69 68 68 68 67 66 66 66 66 65 65 65 66 66 64 62 59 57 55 52 50 49 48 48 48 49 49 50 52 53 55 56 58 60 62 64 65 67 69 71 73 76 78 80 81 83 84 85 85 85 85 85 84 83 82 81 81 82 84
50 50 50 50 51 51 51 51 51 51 51 51 52 52 52 52 52 53 54 55 57 59 61 62 63 64 65 66 67 67 68 68 69 69 69 69 69 69 68 68 68 67 66 65 65 65 64 63 63 64 63 60 57 53 49 47 45 44 43 43 43 43 43 44 45 46 48 49 52 54 55 57 60 62 64 66 68 71 73 75 77 79 81 82 83 84 85 86 86 86 85 84 83 82 81 82 83
50 49 49 49 50 50 50 51 51 51 51 51 52 52 53 52 52 54 55 57 59 61 62 63 64 65 67 67 68 69 69 69 70 70 70 70 70 69 68 68 67 67 66 65 64 63 62 61 61 59 55 50 46 43 41 40 40 40 40 41 42 42 42 43 45 46 48 50 52 54 56 58 60 63 65 67 69 71 73 75 77 79 80 81 83 83 84 84 85 85 85 84 82 81 81 81 82
48 48 48 48 49 50 50 50 50 51 51 52 53 53 54 53 53 54 56 59 61 62 63 64 65 67 68 68 69 70 70 71 71 72 71 71 70 69 68 67 67 66 65 64 62 61 60 60 57 51 45 41 39 38 38 38 39 40 41 42 43 43 44 45 47 48 50 52 54 56 58 59 61 63 65 67 69 71 73 75 77 78 79 80 81 82 82 83 83 83 83 82 80 78 79 80 81
47 47 48 48 49 49 50 50 51 51 51 52 53 54 55 55 54 55 58 60 63 63 64 64 66 68 69 69 71 71 72 72 72 72 71 71 70 69 68 66 66 65 64 62 61 59 58 56 50 43 40 39 38 39 39 40 41 42 43 44 44 45 46 47 49 50 52 54 56 57 59 60 62 64 66 67 69 71 73 75 76 77 78 79 80 80 81 81 81 81 81 80 77 75 75 77 78
47 47 48 48 49 49 50 51 51 51 52 53 54 56 56 56 56 56 59 62 63 64 65 66 68 69 70 71 72 73 73 73 73 72 71 70 69 69 68 66 65 64 63 61 59 58 56 49 42 39 39 39 40 41 42 43 44 44 45 45 46 47 47 49 50 52 54 56 57 59 60 61 62 64 66 68 69 71 73 75 76 77 78 79 79 80 80 81 80 80 80 79 76 73 72 73 75
47 48 48 49 49 50 50 51 52 52 53 54 55 58 58 57 57 57 60 63 64 65 66 67 70 71 71 73 74 74 74 73 72 71 70 69 69 68 67 65 63 62 61 60 58 54 49 42 38 39 40 40 42 43 44 45 45 45 46 46 47 48 49 51 52 54 56 57 59 60 62 62 63 64 66 68 69 70 72 74 76 77 78 79 79 79 80 81 80 81 80 79 77 72 70 71 73
47 48 48 49 50 50 51 52 52 53 54 55 56 58 60 59 58 58 60 64 66 67 68 69 71 72 73 74 75 74 73 72 71 70 69 69 68 67 65 63 62 61 59 57 53 46 40 37 38 40 41 42 43 45 45 46 46 46 46 47 48 50 51 53 54 55 57 58 59 61 62 63 63 63 65 66 68 69 71 73 75 76 77 78 78 79 80 81 81 81 81 80 78 74 70 69 71
47 48 49 49 50 51 52 52 53 54 55 57 56 58 61 60 59 60 62 66 68 69 69 70 72 73 74 74 74 73 71 70 69 69 68 68 66 65 63 62 60 58 56 51 44 38 36 38 40 41 42 43 44 45 45 45 46 47 48 49 50 52 53 54 56 57 58 59 60 61 62 62 63 63 64 65 66 68 69 71 73 74 75 76 77 78 79 80 80 81 81 81 80 76 70 68 69
47 48 49 50 51 51 52 53 54 55 57 58 58 59 63 61 60 62 64 67 69 70 71 71 73 73 73 73 72 71 69 69 68 68 67 66 64 63 62 59 56 53 47 40 36 35 37 39 41 42 43 44 45 45 45 46 47 49 50 51 52 54 55 55 57 58 59 60 61 61 62 62 63 63 64 64 66 67 68 69 71 72 73 75 75 76 77 78 79 80 81 81 81 78 72 68 68
48 48 50 52 52 52 53 54 55 56 58 60 60 61 64 65 62 63 65 68 69 71 72 72 72 72 72 71 70 69 68 67 67 66 64 63 62 60 57 52 47 42 37 34 35 38 39 41 43 44 44 44 45 46 47 48 49 51 53 54 55 56 57 58 59 60 60 61 62 63 63 63 64 64 65 65 65 67 68 68 69 71 72 73 73 74 75 77 78 79 81 81 81 80 75 69 67
48 50 51 53 54 53 53 55 57 58 59 61 62 62 66 67 65 64 66 69 70 71 72 71 71 70 70 69 69 68 67 65 64 63 61 59 56 52 47 43 39 35 34 36 38 40 41 43 44 45 44 45 46 47 49 50 51 53 55 57 58 59 60 61 61 62 62 63 63 64 65 65 66 66 67 66 67 67 68 69 69 70 71 71 72 72 73 75 76 78 79 81 82 81 78 72 68
49 51 53 54 55 55 55 56 58 59 60 62 63 63 67 69 68 66 67 69 71 71 71 71 69 68 68 68 67 65 64 64 61 58 54 50 45 42 39 37 35 36 37 39 40 42 44 44 45 45 46 47 48 49 51 53 55 56 58 59 61 62 63 64 64 64 65 65 65 66 67 68 69 69 70 69 69 70 70 70 70 70 70 71 71 71 72 73 75 76 78 80 81 82 81 76 71
50 52 53 54 55 56 56 57 59 60 61 63 63 64 67 69 70 69 68 69 71 71 70 69 68 68 67 65 64 63 62 60 55 49 44 40 38 37 37 37 37 38 40 41 43 44 45 45 45 46 48 50 51 52 54 56 58 59 61 62 64 65 66 67 67 67 67 67 68 69 70 71 72 73 74 73 73 73 73 72 72 72 71 71 71 71 72 72 74 75 76 78 80 82 82 80 74
51 53 54 55 56 57 58 58 60 60 60 63 64 64 66 68 70 71 70 70 71 71 69 67 67 66 64 62 62 60 56 50 45 40 38 37 37 38 38 39 40 40 42 43 44 45 45 46 47 48 50 52 54 55 56 58 60 62 63 65 66 67 68 69 70 70 70 70 70 72 73 74 75 77 77 77 77 76 76 75 74 74 73 73 72 72 72 72 73 74 75 77 79 81 83 82 78
53 54 55 56 56 58 59 60 61 61 60 62 63 64 67 69 69 71 72 71 71 70 68 67 65 62 60 60 58 52 46 41 38 37 38 38 39 39 40 40 41 42 43 44 46 46 47 48 50 52 53 55 57 58 59 61 63 64 66 68 68 69 70 71 72 73 73 73 75 76 77 78 79 80 81 81 80 80 79 78 77 76 76 75 74 74 73 73 73 74 75 76 78 80 82 83 81
55 56 56 57 57 58 60 61 62 61 60 61 62 63 67 70 71 72 72 72 71 69 67 65 62 59 59 56 49 43 40 38 38 39 40 40 40 41 42 42 43 44 45 46 47 49 50 52 54 55 57 58 60 62 63 64 66 67 69 70 71 72 73 74 75 76 76 77 80 81 82 82 82 83 84 84 84 83 82 81 79 78 78 77 76 76 75 75 75 75 75 76 77 79 81 83 82
57 57 57 58 58 59 59 60 62 62 61 61 62 62 65 69 73 73 72 71 70 68 66 61 58 57 54 47 41 39 39 38 40 41 41 42 42 43 44 44 45 46 47 49 50 52 54 56 57 59 61 62 64 65 66 68 69 70 72 73 73 74 76 76 77 79 80 81 83 85 86 87 86 87 88 88 87 86 85 84 82 81 80 79 79 78 77 77 76 76 76 76 77 78 80 82 83
58 59 58 59 59 59 59 59 60 61 61 62 62 62 64 68 72 74 72 70 70 67 61 56 53 53 47 40 39 40 40 41 41 42 42 43 44 45 46 46 47 49 50 52 54 56 58 60 61 63 64 66 67 69 70 72 73 74 75 76 77 78 79 79 80 82 84 85 87 88 89 90 91 91 91 91 91 90 89 87 85 84 83 82 81 80 79 79 78 78 77 77 77 78 79 80 82
58 59 60 60 60 60 60 59 59 60 61 63 64 63 64 66 70 73 71 69 68 61 54 50 49 47 42 39 41 42 42 43 43 43 43 44 46 48 49 49 50 51 53 55 57 59 61 63 64 66 68 69 71 72 74 76 77 78 78 80 81 82 83 84 84 85 87 89 90 91 92 93 94 95 95 95 95 94 92 91 89 87 86 84 83 82 81 80 80 79 79 78 78 78 78 79 81
58 60 61 61 60 60 60 60 59 59 61 63 66 65 63 66 70 72 70 68 62 53 47 46 46 44 43 42 42 42 43 44 45 45 45 47 49 51 52 53 53 54 56 57 60 62 64 66 68 70 71 73 75 76 78 79 80 81 82 83 84 85 86 87 88 89 90 92 93 95 96 96 98 98 98 99 99 98 96 95 93 91 90 88 87 85 84 83 82 81 80 80 79 78 78 78 80
59 60 60 60 60 60 60 60 60 61 61 63 67 67 64 66 70 72 70 64 55 47 43 43 44 46 46 44 43 43 44 46 47 47 48 50 52 54 55 57 57 58 59 61 62 65 67 69 71 73 75 76 78 80 81 82 83 84 84 85 86 87 89 90 92 92 93 96 97 99 100 101 101 102 102 102 102 102 101 99 97 95 94 92 90 89 87 85 84 83 82 81 80 79 78 78 79
60 60 60 60 60 60 60 60 61 61 62 62 66 68 66 66 69 71 68 60 49 43 41 41 44 48 48 46 45 45 46 48 48 48 50 52 54 56 58 59 61 62 63 64 66 67 69 71 73 75 77 78 80 82 83 85 86 86 87 88 88 90 92 93 95 96 97 100 102 103 104 104 105 105 106 105 105 105 104 102 101 99 98 97 94 92 90 88 86 85 84 82 81 80 79 78 78
61 61 61 60 60 60 60 60 61 61 62 62 64 67 66 66 70 68 61 53 44 40 40 42 45 49 50 48 46 47 49 51 51 51 53 55 57 59 60 62 63 64 66 67 69 71 72 74 76 78 80 81 82 84 85 86 88 89 90 91 92 93 95 97 98 100 102 103 105 107 108 108 108 109 109 108 108 107 106 105 104 103 102 100 98 95 92 90 89 87 85 83 81 80 79 78 78
62 61 61 61 60 60 60 60 61 61 61 62 64 66 65 65 70 65 54 45 41 40 40 43 46 50 51 49 48 49 51 53 55 55 57 58 60 61 63 65 67 68 69 71 73 74 76 78 79 81 83 84 85 86 88 89 90 91 93 94 95 96 98 100 102 104 106 107 108 110 111 112 112 112 112 111 111 110 108 107 106 106 105 103 101 98 95 93 91 88 86 84 82 81 79 78 78
63 62 62 61 59 60 60 60 61 62 61 61 62 64 65 66 66 58 47 41 41 41 41 44 48 52 52 51 51 52 53 55 57 59 62 64 65 66 68 70 71 72 74 76 78 79 81 82 83 85 87 88 88 89 91 92 93 94 96 97 99 101 102 104 105 108 110 111 112 114 114 115 115 115 115 114 113 112 111 109 108 107 106 105 103 101 98 95 93 90 87 85 83 81 79 78 77
64 64 63 61 60 59 58 58 59 59 58 58 59 62 64 65 60 51 43 42 44 43 44 47 50 52 52 53 54 56 57 58 59 62 65 67 69 71 73 74 76 77 80 82 83 85 86 87 87 89 90 91 92 93 94 95 97 98 100 101 103 105 106 108 110 111 114 115 116 117 118 118 118 118 118 117 115 114 112 110 109 107 107 106 104 102 100 97 94 91 88 85 83 81 79 78 77
65 65 64 63 62 59 58 58 58 56 55 55 57 60 61 59 53 48 45 45 45 46 47 50 52 52 53 55 58 60 61 61 63 65 67 69 71 73 76 78 80 82 84 86 88 89 90 91 91 92 93 94 95 96 97 99 101 102 104 106 107 109 111 113 114 116 118 119 119 120 120 121 121 121 120 118 116 115 113 111 109 108 107 106 104 103 100 97 94 91 89 86 83 81 79 77 76
64 65 65 64 63 60 57 56 56 55 53 50 52 55 55 54 50 47 47 47 47 48 51 54 55 55 56 59 62 63 64 66 67 69 71 73 75 77 80 82 83 86 88 89 91 92 93 94 95 95 96 97 98 100 101 103 105 106 108 110 112 114 116 117 119 120 122 122 123 122 122 122 122 121 120 118 116 115 113 111 110 108 107 105 104 102 100 97 94 91 89 86 83 80 78 75 74
63 64 64 63 63 62 58 54 53 51 46 44 47 50 52 53 52 50 49 48 49 52 56 58 58 58 61 64 66 67 69 70 72 74 76 78 80 82 85 86 88 89 91 93 94 95 96 97 98 98 99 101 102 104 105 107 108 111 113 115 117 119 120 122 123 124 125 125 125 124 123 122 121 120 119 117 115 114 112 110 108 106 105 103 102 100 98 96 93 90 88 85 82 79 76 74 72
63 62 63 62 62 61 58 55 51 46 39 37 42 49 53 55 55 54 52 51 54 57 61 63 63 64 66 68 70 72 74 75 77 79 81 83 85 87 89 91 92 94 96 97 98 99 99 100 101 102 103 105 107 109 111 112 113 115 118 120 122 123 125 126 127 127 127 126 125 125 123 121 120 118 117 115 113 112 110 107 105 103 102 100 99 98 97 95 92 88 86 83 80 78 75 72 71
62 61 61 61 60 59 56 51 45 40 36 36 40 47 55 57 56 56 55 55 58 61 64 67 69 69 70 72 74 76 78 80 82 84 86 87 89 91 93 95 97 99 100 100 101 101 102 103 104 106 108 109 111 113 115 117 119 121 123 125 127 128 128 128 129 129 128 127 125 123 121 119 117 116 114 112 111 109 107 105 102 100 99 97 96 95 94 92 89 86 83 81 78 75 73 70 69
62 61 61 60 58 56 52 45 40 37 37 38 40 44 53 59 60 58 58 59 61 64 67 70 73 74 75 77 79 81 83 85 86 88 90 91 93 95 97 99 101 102 103 103 103 104 105 107 108 110 112 114 116 117 120 122 125 127 129 130 131 131 131 130 129 128 127 126 124 121 118 116 115 113 112 110 108 107 105 102 99 96 95 94 93 92 90 88 86 83 81 79 76 73 70 68 68
62 61 60 59 56 51 45 40 39 39 39 41 42 42 49 58 62 61 61 62 64 66 69 72 75 77 78 79 82 84 86 88 90 91 93 95 96 98 101 102 103 104 104 105 106 107 109 111 113 115 116 119 121 123 124 126 129 131 132 134 134 134 133 132 130 128 126 124 122 120 118 115 113 111 109 107 106 104 102 99 96 92 90 90 90 88 86 84 83 81 79 77 75 72 69 67 67
61 60 59 57 52 46 41 40 42 43 42 43 44 44 49 58 62 62 63 64 66 68 71 74 76 79 80 82 83 85 88 90 92 93 95 97 99 100 102 103 104 105 106 107 109 111 113 115 117 119 121 123 125 127 129 130 132 133 134 135 135 135 134 132 130 128 125 123 121 119 117 114 112 109 106 104 101 99 97 94 91 88 86 87 87 85 82 81 80 79 77 75 73 71 68 67 67
58 58 55 51 46 43 42 43 46 47 46 48 48 47 53 61 63 64 65 66 68 72 74 76 79 81 83 85 87 88 90 92 94 96 99 100 101 102 103 104 105 107 109 112 114 116 118 119 121 124 126 128 130 131 132 133 134 134 134 134 133 132 130 128 126 124 122 120 118 116 114 112 109 106 104 101 98 95 93 90 88 84 83 84 85 83 80 78 77 77 76 75 72 70 68 67 66
57 54 49 44 43 44 45 44 46 48 50 53 54 52 57 64 66 68 69 70 72 76 78 80 83 85 87 88 91 93 94 96 98 100 102 103 104 104 105 106 108 111 114 116 118 120 122 124 126 129 131 132 134 135 135 135 135 134 133 131 128 125 123 122 121 119 117 115 113 111 109 107 105 103 101 99 97 94 91 89 86 82 80 81 82 81 78 76 75 75 74 74 72 69 68 67 66
Wind_Direction
256 257 258 260 261 263 264 266 267 268 269 270 271 271 272 272 273 274 274 275 276 276 277 278 279 280 281 281 282 282 283 283 283 283 284 284 284 284 284 284 285 285 285 285 284 284 284 283 282 282 281 281 280 279 279 278 278 277 277 277 276 275 275 274 274 273 273 272 271 271 270 270 269 268 267 266 266 265 264 263 263 262 261 260 259 258 257 256 255 254 253 252 252 252 251 250 248
255 255 257 259 261 263 265 267 268 269 269 269 270 271 272 273 274 275 276 277 278 279 279 280 281 281 281 282 282 282 283 283 284 284 285 285 285 285 285 285 285 285 285 284 284 283 282 281 281 280 279 278 278 277 277 276 276 275 275 274 274 273 273 273 272 272 271 271 270 270 269 269 268 267 266 265 265 264 263 262 261 261 260 260 258 257 256 255 253 252 252 251 250 250 249 248 247
253 255 257 259 262 264 265 266 267 268 269 270 272 273 275 276 277 278 278 279 279 280 280 281 281 282 282 283 283 283 284 285 285 286 286 286 286 286 286 285 285 284 283 282 282 281 280 279 279 278 277 277 276 276 275 275 274 274 273 273 272 272 271 271 271 270 270 269 269 268 268 268 267 266 266 265 264 263 262 261 260 259 258 258 257 256 255 254 253 251 250 250 249 249 248 247 246
255 257 259 260 262 263 265 266 268 271 272 273 275 276 277 278 278 279 279 280 281 281 282 282 283 283 284 284 285 285 285 286 286 286 286 285 285 285 284 283 283 282 281 281 280 279 279 278 277 277 276 275 274 274 273 272 272 271 271 270 270 270 269 269 269 269 269 268 268 268 267 267 266 266 265 264 263 262 261 261 260 259 258 257 256 255 254 253 252 251 250 248 248 247 247 246 245
258 259 260 262 263 265 268 270 273 275 276 276 276 277 278 279 280 280 281 282 283 283 284 284 285 285 285 285 285 285 285 285 285 284 284 283 283 283 282 281 281 280 280 279 279 278 278 277 277 276 276 275 275 274 273 272 272 271 271 270 270 269 268 268 267 267 267 266 266 266 266 266 265 265 264 264 263 263 262 261 260 259 258 256 255 254 253 253 252 250 249 248 247 246 245 245 244
260 261 263 264 267 269 272 274 276 277 278 278 279 279 280 281 282 283 283 284 285 285 285 285 285 285 285 285 284 284 284 284 284 283 283 282 282 282 281 281 280 280 279 279 278 278 278 277 277 277 276 276 276 276 276 275 275 274 273 273 272 271 270 269 269 267 267 266 265 265 265 265 264 263 263 262 262 261 261 261 260 259 258 257 255 254 253 252 251 250 249 248 247 246 245 244 243
262 264 266 268 270 272 274 276 277 278 279 280 281 282 282 283 283 284 284 284 284 284 284 284 284 284 284 284 284 284 284 284 283 283 283 282 282 281 281 281 280 280 280 279 279 279 278 278 278 278 278 278 279 278 278 278 278 277 277 276 275 275 274 273 272 271 269 268 267 266 265 265 264 264 263 262 261 260 260 259 259 258 258 257 256 255 253 251 250 250 249 248 246 245 244 243 242
266 268 270 271 272 274 276 277 278 279 281 282 282 283 283 283 283 283 283 283 283 284 284 284 284 285 285 285 285 284 284 284 283 283 282 282 282 281 281 281 281 281 281 281 281 281 281 281 281 281 281 281 281 280 280 280 279 279 278 278 277 276 276 275 274 273 272 271 270 269 268 266 265 264 263 263 262 261 260 259 258 257 256 256 256 255 254 253 251 249 248 248 247 245 244 243 242
269 271 272 273 275 276 277 278 280 280 281 282 282 282 283 283 284 284 284 285 285 285 285 285 286 286 285 285 285 284 284 284 283 283 283 282 282 282 282 283 283 283 283 283 283 283 283 283 283 283 282 282 282 281 281 280 280 279 279 278 278 277 276 276 275 274 273 273 272 271 270 269 267 266 265 263 262 262 261 260 259 258 257 256 255 254 254 253 253 251 249 248 247 246 244 243 241
271 273 274 275 276 277 279 280 281 281 282 282 283 283 284 285 286 286 286 287 287 287 287 287 286 286 286 285 285 285 284 284 284 283 283 284 284 284 284 285 285 285 285 285 285 284 284 284 284 283 283 282 282 281 280 280 279 279 278 278 278 277 277 276 276 275 274 274 273 272 271 270 269 268 267 266 265 264 262 261 260 259 258 257 256 255 253 253 252 252 251 249 247 246 244 243 242
272 273 275 277 278 280 281 282 283 283 284 284 285 286 286 287 287 287 288 288 288 288 288 287 287 286 286 286 286 285 285 285 285 285 285 286 286 286 286 286 286 286 286 285 285 285 285 284 284 283 282 282 281 281 280 280 279 279 278 278 278 277 277 276 276 275 275 274 273 273 272 271 270 269 269 268 267 266 265 264 262 261 259 258 256 256 255 253 253 252 251 251 249 247 245 244 242
274 276 278 280 282 283 284 284 285 286 286 287 287 287 287 288 288 288 289 289 289 289 288 288 287 287 287 287 286 286 287 287 287 287 287 287 287 287 287 287 287 287 286 286 286 285 285 285 284 283 283 282 281 281 280 280 279 279 278 278 277 277 277 276 276 275 275 274 273 272 272 271 271 270 270 269 268 268 267 267 266 264 263 261 259 257 256 254 253 252 252 251 250 249 247 245 243
279 281 283 283 284 285 285 286 287 287 288 288 288 289 289 289 290 290 290 290 290 289 289 288 287 287 287 287 287 287 287 287 287 288 288 288 288 288 288 287 287 287 287 287 286 286 286 285 285 285 284 284 283 282 281 280 280 279 278 278 277 276 276 275 275 275 274 274 273 272 272 271 271 270 270 269 269 268 268 267 267 267 266 265 263 262 259 257 254 253 252 251 250 249 248 246 244
282 283 284 284 285 286 287 287 288 289 289 289 290 290 291 291 292 292 291 291 290 289 288 287 287 287 287 287 287 287 287 287 287 287 288 288 288 288 288 288 288 288 288 288 288 287 287 287 287 287 286 285 285 284 283 281 280 279 279 278 277 276 275 275 274 274 273 273 272 272 271 271 270 270 270 269 269 268 268 267 267 267 267 266 266 265 263 261 258 256 254 252 250 249 247 246 245
283 284 285 286 287 287 288 289 289 290 290 291 291 292 293 293 292 292 291 290 289 288 287 286 286 286 286 286 286 287 287 287 287 287 287 287 287 288 288 288 288 288 289 289 289 289 289 289 288 287 287 286 285 285 284 283 282 281 280 278 277 276 275 274 273 273 272 272 272 272 271 271 271 270 270 269 269 269 269 268 268 267 267 267 266 266 265 263 261 259 257 254 252 250 248 246 245
283 284 286 287 288 288 289 290 290 291 291 292 293 293 293 293 292 291 290 289 287 286 285 285 285 286 286 286 286 286 286 287 287 287 287 287 287 288 288 288 289 289 290 290 290 290 289 288 288 287 286 286 285 285 284 283 283 282 280 279 277 276 275 274 273 272 272 271 271 271 271 271 271 271 270 270 270 270 269 269 269 268 268 267 267 266 265 264 263 261 258 256 253 251 249 247 246
284 285 287 288 288 289 290 290 291 292 292 293 293 293 293 292 291 290 289 288 286 285 285 284 285 286 285 285 286 286 286 285 286 286 286 287 287 288 289 289 289 290 291 291 291 290 289 288 287 287 287 286 286 285 284 283 282 281 280 279 277 276 275 274 273 272 271 271 271 271 271 271 271 271 271 270 270 270 269 269 269 268 268 268 268 267 267 266 264 262 260 258 255 253 250 248 246
285 286 288 289 290 290 291 292 292 293 293 293 293 293 292 291 290 289 288 287 286 285 284 284 285 286 286 286 286 286 286 286 286 287 287 288 289 289 290 290 291 291 292 292 291 290 289 289 288 288 287 287 286 285 284 283 282 280 279 278 277 276 275 274 272 271 271 271 271 271 270 270 270 270 270 270 270 269 269 269 268 269 268 268 268 268 267 267 266 264 262 260 257 255 252 249 247
287 288 289 290 290 291 292 292 293 293 293 293 293 292 291 290 289 289 288 286 285 284 284 285 286 287 287 287 287 287 287 288 288 289 289 290 291 291 291 292 292 292 292 292 292 291 290 290 289 288 288 287 286 284 283 283 282 280 279 278 277 276 275 273 272 271 270 270 270 270 269 270 270 270 270 270 270 270 270 270 270 270 269 269 269 268 268 267 267 265 264 262 260 258 254 251 248
288 289 290 291 291 292 292 293 293 294 293 293 292 291 291 290 289 288 287 285 285 285 285 286 287 288 288 288 288 288 289 290 290 291 291 292 292 293 293 293 294 293 293 293 292 292 291 291 290 289 288 286 285 284 283 283 282 281 280 279 278 276 275 273 272 271 270 269 269 269 269 269 269 269 269 270 271 271 271 272 272 271 271 271 271 270 269 269 267 266 265 263 262 260 257 254 251
289 290 291 292 292 293 293 293 294 294 293 293 292 291 290 290 289 288 287 286 286 286 287 288 288 289 289 290 290 290 291 292 292 293 293 294 294 295 295 295 295 294 294 294 293 292 291 291 291 290 288 286 285 285 284 283 282 281 281 280 279 277 276 274 272 271 270 270 269 269 269 270 270 270 271 271 272 272 273 273 273 273 273 273 273 273 272 271 270 269 267 265 263 261 259 257 254
291 291 292 292 293 293 293 294 294 294 294 293 293 292 291 290 290 289 287 287 287 287 288 289 290 291 291 291 291 292 293 293 294 295 295 296 296 297 297 297 296 296 295 294 293 292 292 292 291 290 289 288 287 286 284 282 281 281 282 282 282 280 278 276 274 273 273 273 273 273 273 273 273 273 274 274 274 274 274 274 274 274 275 275 275 275 274 274 273 272 270 268 266 263 261 258 256
291 291 291 292 292 294 294 295 295 295 295 294 293 292 291 291 290 290 289 288 288 289 289 290 291 292 292 292 293 293 294 295 296 297 298 298 298 298 298 298 297 297 296 295 294 293 293 292 291 290 290 290 289 286 283 282 282 283 284 284 284 284 282 281 280 279 278 277 277 277 276 276 276 276 276 275 275 275 275 275 275 275 275 275 275 275 275 274 274 273 272 270 268 266 263 259 257
289 290 290 292 294 295 296 296 296 296 296 295 294 293 292 292 291 291 290 290 289 289 290 291 292 292 292 293 294 295 296 298 299 299 299 300 300 300 299 299 298 297 296 295 294 294 293 292 291 291 291 289 288 286 285 284 285 286 286 287 287 286 285 284 283 282 281 280 279 278 278 277 277 277 276 276 276 276 276 276 276 276 276 275 275 275 275 275 274 273 272 270 268 266 263 260 257
288 290 291 293 295 297 297 297 297 297 296 296 295 294 293 293 292 291 290 290 290 290 290 291 292 293 293 295 296 297 299 300 300 300 301 301 301 301 300 299 298 296 295 295 294 294 293 292 291 290 288 288 288 287 288 288 288 288 288 287 287 287 286 285 283 282 282 281 280 279 279 278 278 278 278 278 278 278 278 278 278 278 277 277 277 277 276 276 275 274 273 271 268 265 263 261 257
288 291 293 295 297 298 298 298 298 298 297 297 295 294 293 293 292 291 290 290 290 291 292 293 294 294 295 297 298 299 300 300 301 301 302 302 302 301 300 298 297 296 295 295 294 293 291 291 288 285 285 287 288 289 290 289 289 289 288 288 287 287 286 286 285 284 283 283 282 281 281 281 281 281 281 281 281 281 281 281 281 280 280 280 279 279 278 277 277 276 274 272 269 265 263 261 257
289 292 294 296 297 298 299 299 298 298 298 297 295 294 293 293 293 292 291 291 291 293 294 295 295 296 297 298 299 300 300 301 302 302 303 303 302 300 299 298 297 296 295 294 293 292 290 288 284 283 286 288 289 290 289 289 289 289 289 288 288 288 288 287 287 286 286 285 284 284 283 283 283 284 283 283 283 283 283 283 283 282 282 282 281 281 280 279 278 277 276 274 271 267 264 262 258
291 293 295 297 298 299 299 299 298 298 297 297 296 295 294 294 294 293 293 293 293 294 295 296 296 297 298 299 299 300 300 301 303 303 303 303 301 299 298 298 297 296 294 293 292 291 288 284 281 284 286 288 289 289 289 289 289 289 289 289 290 290 290 289 288 288 287 287 286 286 286 285 285 285 285 285 284 284 284 283 283 283 282 282 282 282 281 280 280 279 278 276 274 270 266 264 260
293 294 296 298 299 299 299 298 297 297 297 297 296 295 294 295 295 295 295 294 295 295 296 296 296 297 298 299 299 300 301 303 304 304 303 301 299 299 298 297 296 295 293 292 292 289 284 282 283 285 287 289 289 289 289 289 289 289 290 290 290 290 290 290 289 289 288 288 287 287 286 286 286 285 285 285 285 284 284 283 283 283 282 282 282 281 281 281 280 280 279 278 276 272 269 266 262
294 295 297 297 298 299 298 297 297 297 297 297 296 295 294 295 296 296 296 295 295 296 296 296 296 297 298 298 299 301 303 304 304 304 302 300 299 299 298 297 296 294 293 293 290 286 284 285 286 287 288 290 290 289 290 290 291 291 291 291 291 290 290 290 289 289 289 288 288 287 287 287 286 286 285 285 285 284 284 283 283 283 283 282 282 281 281 280 280 280 280 279 278 275 271 268 264
294 295 296 297 298 298 297 297 297 298 297 297 297 296 295 296 296 296 296 295 295 295 295 296 296 297 298 299 301 303 305 305 304 302 300 300 300 299 297 296 295 295 294 292 288 286 287 288 288 289 290 291 290 291 291 291 292 292 292 291 291 291 290 290 290 289 289 289 289 288 288 288 288 287 286 286 285 285 285 284 284 284 283 283 282 281 281 280 280 280 279 279 279 277 273 269 266
294 295 297 297 298 298 297 297 297 298 298 298 298 297 296 296 297 296 295 295 295 295 295 296 297 298 300 302 303 305 306 305 302 301 301 301 300 298 298 297 296 295 293 290 289 290 290 289 290 290 291 291 291 292 292 292 292 292 292 292 291 291 291 291 291 290 290 290 291 291 291 291 290 290 289 288 287 287 287 286 285 285 284 283 283 282 281 281 280 280 280 279 279 278 275 271 268
294 295 297 298 298 298 298 298 298 299 299 298 298 298 296 296 297 297 295 295 295 295 296 297 299 301 303 304 305 306 305 302 301 302 302 301 300 300 299 299 297 294 291 290 291 292 291 291 290 291 291 292 292 292 293 292 292 292 292 292 292 292 292 292 292 292 292 292 293 293 294 294 294 293 292 291 291 290 290 289 288 287 285 285 284 283 282 281 281 280 280 280 280 279 277 274 270
294 296 297 298 298 298 298 298 299 299 299 298 298 298 297 296 297 297 296 296 295 296 297 299 302 303 304 306 307 305 302 301 303 303 302 302 302 302 300 299 296 293 292 292 293 293 292 291 291 292 292 293 293 293 293 292 293 293 293 293 293 293 293 294 294 294 294 295 295 296 297 297 297 297 296 296 295 294 293 292 291 289 287 286 285 284 283 282 281 280 280 280 280 280 279 276 273
294 296 297 298 298 298 299 299 298 298 299 298 298 298 297 297 297 297 297 296 297 298 300 302 304 305 307 308 306 302 302 304 305 304 303 304 304 302 300 298 295 294 294 294 293 293 292 291 291 292 293 293 292 292 292 292 293 293 294 294 294 294 294 295 296 296 296 297 298 298 299 300 300 300 300 299 298 297 296 295 293 292 290 288 287 286 285 283 282 281 280 280 280 280 279 278 275
295 296 297 297 297 298 298 298 298 298 298 298 298 299 297 297 298 298 297 297 298 299 302 304 305 307 310 307 303 303 306 307 306 305 306 305 303 302 300 298 296 296 295 294 294 292 292 291 291 291 292 292 291 292 292 292 293 294 294 294 295 295 296 297 297 298 298 299 299 300 301 302 302 302 301 301 300 299 297 296 295 294 293 291 290 288 286 285 283 282 281 280 280 280 279 279 277
295 296 297 297 297 298 299 299 299 299 299 298 299 299 298 297 297 297 297 299 300 301 303 305 308 311 309 303 303 307 308 306 306 306 305 304 303 302 300 299 298 297 296 295 294 293 292 292 291 292 292 292 292 292 293 293 294 294 295 295 296 296 297 297 298 299 300 301 302 302 302 303 303 303 302 301 301 300 299 298 297 296 294 293 292 290 288 286 284 283 281 281 280 280 279 279 278
296 296 296 297 298 298 299 299 299 300 300 299 299 299 298 298 298 297 298 300 301 303 305 308 313 311 304 303 308 309 306 306 306 305 305 305 304 302 301 299 298 297 297 296 295 294 293 293 293 293 293 293 293 293 294 294 294 295 295 296 297 297 298 298 299 300 301 303 303 303 303 303 303 303 303 302 302 301 300 299 298 296 295 294 293 291 290 288 286 284 282 281 280 279 279 279 278
296 296 297 297 298 298 299 300 300 300 300 299 299 298 298 298 298 298 299 301 302 304 307 313 313 305 302 308 310 305 305 307 305 305 305 305 304 302 301 300 299 298 298 297 296 296 295 295 295 294 295 294 294 294 294 295 295 296 296 297 297 298 299 299 300 301 302 303 303 303 303 303 303 303 303 303 302 301 300 299 298 297 296 294 293 292 290 288 286 285 283 281 280 279 278 278 278
296 297 297 298 299 299 299 300 300 300 300 299 298 298 298 298 298 299 300 301 302 305 311 315 307 300 305 310 306 305 308 306 305 305 305 305 304 302 301 301 301 300 299 298 298 297 297 297 296 296 296 295 295 296 296 296 297 297 298 299 299 299 300 300 301 301 302 302 302 302 303 303 303 304 303 303 303 302 301 300 298 297 296 295 293 292 290 289 287 285 284 282 280 279 278 277 277
297 298 299 299 300 300 301 301 301 300 301 300 299 299 299 299 298 298 299 300 302 308 315 311 301 301 307 308 305 307 307 306 306 305 305 306 304 302 302 302 302 301 300 299 299 299 298 298 298 297 297 297 297 298 298 298 299 299 300 300 300 300 300 300 300 301 301 302 302 302 303 303 303 303 303 303 303 302 301 300 299 297 296 295 293 292 290 289 287 286 284 283 281 279 278 277 277
298 299 300 301 301 302 302 302 302 301 300 300 300 300 301 300 298 297 297 299 306 315 314 305 301 304 306 305 306 307 306 306 306 307 308 306 303 303 304 304 303 302 301 301 301 301 300 300 299 299 299 299 299 299 299 299 299 300 300 300 300 300 299 299 300 300 301 301 301 302 303 303 303 303 303 303 303 302 301 300 299 298 297 296 294 293 291 290 288 287 285 283 281 280 278 277 276
300 300 301 302 302 303 303 302 302 301 302 302 301 302 303 301 298 297 298 304 314 317 309 302 303 304 304 305 307 307 307 306 306 308 307 304 303 304 305 305 305 304 304 303 303 302 301 301 300 299 299 299 299 299 299 299 299 299 299 299 298 298 298 299 299 300 301 301 302 302 303 303 303 303 303 303 303 302 301 301 300 299 298 296 295 294 292 291 290 288 286 284 282 280 278 277 275
301 302 302 302 303 303 303 302 302 303 304 304 303 303 303 301 298 297 300 309 318 314 304 303 303 302 303 306 307 308 308 307 306 306 304 303 304 305 305 305 305 305 304 304 302 301 300 299 299 298 298 298 298 298 298 298 298 298 298 298 298 298 298 299 300 301 301 302 302 303 303 303 303 303 303 303 302 302 301 301 300 299 298 297 295 294 293 291 290 289 286 284 282 280 279 277 275
302 303 303 303 303 303 303 303 304 305 305 305 304 302 302 300 297 297 305 314 316 308 304 305 303 301 302 306 309 309 308 306 305 304 304 304 304 304 305 305 305 304 304 303 302 301 300 300 299 299 299 299 299 298 298 298 298 298 298 298 298 298 299 300 301 301 301 302 302 302 303 303 303 303 303 302 302 301 300 300 300 299 298 297 296 294 293 292 290 289 287 285 283 281 279 277 275
303 303 303 303 303 303 304 305 306 306 306 306 304 302 301 298 296 302 312 316 310 306 306 305 302 300 302 307 309 308 307 305 304 304 304 304 304 304 305 305 305 304 304 303 302 302 302 301 301 301 300 300 300 299 299 298 298 298 298 298 298 299 300 300 301 302 302 302 302 302 303 303 303 302 302 302 301 300 300 299 299 298 297 297 296 294 293 292 290 288 287 285 283 281 279 277 274
304 303 303 303 303 304 306 307 307 307 307 306 304 301 298 295 297 306 315 313 307 306 307 304 300 300 304 308 308 306 305 304 304 305 305 306 306 306 306 305 305 305 305 304 304 304 303 303 302 302 301 301 300 300 299 299 299 299 299 299 300 300 301 301 302 302 302 302 302 302 302 302 302 302 301 301 300 300 299 298 298 297 297 296 295 294 293 291 290 288 287 285 283 281 279 277 274
304 303 303 303 304 305 307 307 306 306 306 305 301 298 296 295 301 309 313 310 307 308 306 302 299 301 305 307 306 304 303 303 304 305 305 306 306 306 305 305 305 306 305 305 305 305 304 304 303 302 302 301 301 300 300 300 300 300 300 300 301 301 302 302 302 302 302 302 302 302 302 302 302 301 301 300 299 298 298 297 297 296 296 295 294 294 292 291 289 288 286 285 283 281 279 276 274
304 303 304 305 306 307 308 307 306 306 305 303 300 297 295 298 304 309 309 308 308 308 306 302 301 303 305 305 304 303 303 303 303 303 303 303 304 304 304 304 305 305 305 305 305 305 304 304 303 302 302 301 301 301 301 301 301 301 301 302 302 302 303 303 303 303 302 302 302 302 302 301 301 300 299 298 298 297 297 296 296 295 295 294 293 292 291 290 289 287 286 284 283 281 278 276 273
303 303 304 306 306 307 308 308 308 307 305 302 298 296 296 299 303 306 306 307 308 307 304 301 302 304 304 303 302 302 302 302 302 302 303 303 304 304 304 304 304 304 304 304 304 304 303 303 303 302 302 302 302 301 301 301 302 302 302 303 303 303 303 303 303 303 302 302 302 301 301 300 299 298 298 297 296 296 295 295 294 294 293 293 292 291 290 289 288 286 285 284 282 280 278 275 273
303 304 305 306 307 308 309 310 309 306 303 301 298 297 298 300 302 304 305 307 307 306 304 303 304 305 304 302 302 302 303 303 303 304 304 304 304 304 303 303 303 303 303 304 304 304 303 303 303 303 303 302 302 302 302 302 303 303 303 303 303 303 303 303 303 302 302 301 301 300 299 299 298 297 296 296 295 294 294 293 292 292 292 291 290 289 289 288 286 286 285 283 282 279 277 275 272
305 306 306 306 307 309 311 311 308 304 301 300 299 299 300 301 303 305 306 308 308 307 305 304 305 304 303 303 303 304 304 304 305 304 304 304 304 304 304 304 304 304 304 304 304 304 304 304 303 303 303 303 303 303 303 303 303 303 303 303 303 303 303 303 302 302 301 300 300 299 298 297 297 296 295 294 294 293 292 291 291 290 290 289 289 288 287 286 285 285 283 282 280 278 276 274 271
306 307 306 306 308 309 310 309 305 302 302 301 300 301 301 302 303 304 307 308 307 306 305 305 305 304 304 304 305 305 305 306 305 305 305 305 305 305 305 305 305 305 305 304 304 304 304 304 303 303 303 303 303 303 303 304 304 304 304 303 303 303 302 302 301 301 300 300 299 298 297 296 295 295 294 293 292 291 291 290 289 289 289 288 287 286 285 285 284 283 282 280 279 277 275 273 270
307 307 306 308 310 310 309 307 303 301 302 300 300 301 301 302 302 303 306 307 306 306 305 305 305 305 306 306 306 306 307 306 306 306 306 306 306 306 305 305 305 305 305 304 304 304 304 303 303 303 303 304 304 304 304 304 304 303 303 303 302 302 302 301 301 300 300 299 298 297 296 296 295 294 293 292 291 290 289 288 288 287 287 286 285 284 284 283 283 282 280 279 277 276 274 271 268
307 307 307 309 310 309 307 305 302 301 301 299 298 298 299 300 301 303 304 305 305 305 304 304 304 305 305 306 306 306 306 306 306 306 306 306 306 305 305 305 305 304 304 304 304 304 304 304 304 304 304 304 304 304 304 304 303 303 303 302 302 302 302 302 301 300 300 299 298 297 296 295 294 293 292 291 290 289 288 287 286 286 285 284 283 282 282 282 281 280 279 277 276 274 272 270 267
306 307 309 310 309 308 306 304 302 301 300 298 296 297 297 296 297 300 301 302 303 303 302 302 303 303 304 304 304 304 305 305 305 305 305 304 304 304 304 304 304 304 304 304 304 304 304 304 304 304 305 304 304 304 303 303 303 302 302 302 302 302 302 301 300 300 299 298 297 297 296 295 294 292 291 290 288 287 286 286 285 284 284 283 282 281 280 280 279 279 278 276 275 273 271 269 266
306 307 308 308 307 306 305 305 304 303 302 300 298 299 298 296 297 299 300 301 302 302 302 302 302 302 303 303 303 304 304 304 304 304 304 304 304 304 303 304 304 304 304 304 304 304 305 305 305 305 304 304 304 303 303 303 303 302 302 302 301 301 300 300 299 299 299 298 297 296 296 295 294 292 291 290 288 287 286 285 284 283 283 281 281 280 279 279 278 277 276 275 273 272 270 268 266
307 308 308 307 305 304 304 303 302 302 302 301 299 300 300 299 300 301 301 303 304 303 303 303 303 303 303 304 304 305 305 305 305 304 304 304 304 304 304 304 305 305 305 305 305 305 305 305 305 304 304 304 303 303 303 303 302 302 302 301 301 300 300 300 299 299 298 297 297 296 295 294 293 292 291 290 289 288 287 286 285 284 282 281 279 279 279 278 277 275 274 273 272 270 269 267 265